Palm Springs, CA

2:09 AM PST on January 23, 2018 (GMT -0800)
Palm Springs International

Weather History for KPSP - October, 2010

Change the Weather History Date:

Sunday, October 10, 2010

  Actual Average Record
Temperature  
Mean Temperature 85 °F 78 °F  
Max Temperature 100 °F 91 °F 108 °F (1991)
Min Temperature 69 °F 64 °F 45 °F (1930)
Degree Days  
Heating Degree Days 0 0  
Month to date heating degree days 0 0  
Since 1 July heating degree days 0 0  
Cooling Degree Days 20 13  
Month to date cooling degree days 127 143  
Year to date cooling degree days 3780 3869  
Growing Degree Days 35 (Base 50)    
Moisture  
Dew Point 34 °F    
Average Humidity 18    
Maximum Humidity 27    
Minimum Humidity 9    
Precipitation  
Precipitation 0.00 in 0.01 in 1.22 in (1932)
Month to date precipitation 0.01 0.09  
Year to date precipitation 5.46 3.98  
Since 1 July precipitation 0.12  
Snow  
Snow 0.00 in - - ()
Month to date snowfall 0.0  
Year to date snowfall 0.0  
Snow Depth 0.00 in    
Sea Level Pressure  
Sea Level Pressure 29.91 in    
Wind  
Wind Speed 7 mph (NW)    
Max Wind Speed 13 mph    
Max Gust Speed 16 mph    
Visibility 10 miles    
Events      
T = Trace of Precipitation, MM = Missing Value Source: NWS Daily Summary

Daily Weather History Graph

Daily Weather History Graph

Search for Another Location

Airport or City:

Trip Planner

Search our weather history database for the weather conditions in past years. The results will help you decide how hot, cold, wet, or windy it might be!

Date:

Astronomy

Oct. 10, 2010 Rise Set
Actual Time 6:47 AM PDT 6:18 PM PDT
Civil Twilight 6:22 AM PDT 6:43 PM PDT
Nautical Twilight 5:53 AM PDT 7:12 PM PDT
Astronomical Twilight 5:24 AM PDT 7:41 PM PDT
Moon 10:09 AM PDT (10/10) 8:19 PM PDT (10/10)
Length of Visible Light 12h 21m
Length of Day
11h 31m
Waxing Crescent, 12% of the Moon is Illuminated
Oct 10
Waxing Crescent
Oct 14
First Quarter
Oct 22
Full
Oct 30
Last Quarter
Nov 5
New

Hourly Weather History & Observations

Time (PDT) Temp. Dew Point Humidity Pressure Visibility Wind Dir Wind Speed Gust Speed Precip Events Conditions
12:53 AM 73.9 °F 34.0 °F 23% 29.99 in 10.0 mi NNW 10.4 mph - N/A   Clear
1:53 AM 73.0 °F 32.0 °F 22% 29.99 in 10.0 mi NNW 9.2 mph - N/A   Clear
2:53 AM 73.0 °F 34.0 °F 24% 29.98 in 10.0 mi NNW 6.9 mph - N/A   Clear
3:53 AM 71.1 °F 32.0 °F 24% 29.97 in 10.0 mi NW 9.2 mph - N/A   Clear
4:53 AM 71.1 °F 33.1 °F 25% 29.97 in 10.0 mi NNW 9.2 mph - N/A   Clear
5:53 AM 70.0 °F 34.0 °F 27% 29.98 in 10.0 mi NW 9.2 mph - N/A   Clear
6:53 AM 72.0 °F 36.0 °F 27% 29.99 in 10.0 mi NNW 8.1 mph - N/A   Clear
7:53 AM 72.0 °F 36.0 °F 27% 29.99 in 10.0 mi NNW 4.6 mph - N/A   Clear
8:53 AM 82.9 °F 39.9 °F 22% 30.00 in 10.0 mi WNW 3.5 mph - N/A   Clear
9:53 AM 91.0 °F 33.1 °F 13% 29.99 in 10.0 mi East 5.8 mph - N/A   Clear
10:53 AM 93.0 °F 34.0 °F 12% 29.97 in 10.0 mi WSW 3.5 mph - N/A   Clear
11:53 AM 96.1 °F 32.0 °F 10% 29.95 in 10.0 mi North 6.9 mph - N/A   Clear
12:53 PM 97.0 °F 32.0 °F 10% 29.92 in 10.0 mi NNE 11.5 mph - N/A   Clear
1:53 PM 100.0 °F 32.0 °F 9% 29.88 in 10.0 mi North 12.7 mph - N/A   Clear
2:53 PM 98.1 °F 30.0 °F 9% 29.85 in 10.0 mi Calm Calm - N/A   Clear
3:53 PM 99.0 °F 30.9 °F 9% 29.83 in 10.0 mi NE 8.1 mph - N/A   Clear
4:53 PM 97.0 °F 30.0 °F 9% 29.82 in 10.0 mi NNW 5.8 mph - N/A   Clear
5:53 PM 91.9 °F 33.1 °F 12% 29.81 in 10.0 mi SW 4.6 mph - N/A   Clear
6:53 PM 89.1 °F 34.0 °F 14% 29.82 in 10.0 mi Calm Calm - N/A   Clear
7:53 PM 87.1 °F 37.9 °F 18% 29.83 in 10.0 mi West 4.6 mph - N/A   Clear
8:53 PM 84.9 °F 35.1 °F 17% 29.84 in 10.0 mi WSW 5.8 mph - N/A   Clear
9:53 PM 84.9 °F 34.0 °F 16% 29.84 in 10.0 mi WNW 5.8 mph - N/A   Clear
10:53 PM 80.1 °F 37.0 °F 21% 29.85 in 10.0 mi NNW 8.1 mph - N/A   Clear
11:53 PM 79.0 °F 35.1 °F 20% 29.84 in 10.0 mi NNW 12.7 mph - N/A   Clear